Theta_e
355 353 356 354 355 359 358 358 359 358 359 359 359 359 360 360 359 358 358 358 357 358 358 357 356 356 356 356 356 356 356 356 355 354 354 353 352 350 350 349 348 348 348 348 349 351 352 352 351 351 351 350 350 349 349 348 344 342 342 342 342 342 342 342 342 342 342 343 343 343 343 344 342 342 341 340 341 341 340 341 342 338 338 337 339
352 357 357 357 352 356 358 358 359 359 359 359 359 359 359 359 358 358 358 358 357 358 357 357 356 356 356 356 356 356 356 355 354 354 354 354 351 351 353 350 348 348 348 349 351 351 351 351 350 350 350 350 350 349 349 348 344 343 343 343 342 342 341 341 341 341 342 343 343 342 341 340 339 340 341 340 341 341 341 342 344 338 337 339 339
356 357 359 357 351 352 356 358 359 358 358 359 359 359 359 359 358 358 358 357 357 357 357 356 356 356 356 356 356 356 356 356 355 353 353 354 352 352 352 350 348 349 350 349 350 350 351 351 350 350 350 349 349 349 349 347 344 343 342 342 342 341 340 341 342 341 341 342 342 341 341 341 340 340 340 340 340 340 341 342 340 339 336 338 338
352 353 357 354 349 349 353 357 358 358 358 358 358 359 358 357 357 357 357 357 357 357 357 356 355 356 356 356 356 356 356 356 354 352 352 354 353 352 351 349 349 350 350 349 348 348 350 351 350 349 349 349 349 349 348 347 345 342 342 341 342 341 341 341 343 342 342 343 342 342 340 339 338 339 341 341 340 339 340 341 340 339 338 338 337
352 355 356 356 357 351 351 354 357 358 358 357 358 358 355 354 355 354 353 350 350 351 357 356 355 356 356 356 356 355 355 354 354 352 352 354 352 351 351 349 347 349 349 348 348 348 348 350 350 349 348 348 349 349 349 347 344 343 343 342 341 341 341 341 341 340 340 341 343 345 337 336 338 339 339 338 339 338 338 338 338 337 337 338 338
351 354 356 355 355 355 351 353 356 358 358 358 358 356 355 354 353 353 352 350 349 348 352 356 356 356 356 356 356 356 355 354 354 353 353 354 352 351 350 347 349 349 349 348 348 348 348 348 348 348 348 348 349 349 348 345 343 342 342 341 341 340 340 340 340 340 341 340 342 338 339 338 337 338 339 340 340 340 339 338 338 338 337 336 336
352 355 356 356 352 354 352 352 354 356 358 358 358 357 356 354 353 352 351 350 350 348 347 356 356 356 356 356 356 356 355 354 353 352 351 351 352 350 349 347 347 348 348 348 347 347 347 347 348 347 347 348 348 348 348 346 344 343 342 342 342 341 341 341 340 341 340 341 342 340 340 338 338 339 341 341 341 340 339 338 339 338 338 338 337
352 352 352 354 353 353 352 351 353 355 358 358 358 357 356 354 353 352 351 350 351 349 350 354 356 356 356 356 356 356 354 353 351 352 351 352 351 351 349 349 349 348 347 347 347 347 347 347 346 347 347 348 348 348 347 345 344 343 342 342 342 341 340 341 342 340 342 339 340 340 342 339 338 338 339 341 341 340 340 339 339 338 337 338 337
351 355 354 352 352 353 352 351 352 355 358 358 357 358 356 354 352 352 351 351 350 351 352 355 355 355 355 356 355 354 354 353 353 353 353 352 351 351 350 350 350 350 350 349 349 349 347 346 346 346 347 348 347 347 346 345 344 343 343 342 341 341 340 341 341 341 342 340 339 338 338 338 338 339 340 341 340 339 338 339 338 338 337 336 336
350 355 352 351 353 350 350 349 349 352 355 357 357 357 356 354 353 352 351 351 352 352 354 355 355 355 355 354 354 353 353 353 353 352 352 351 351 351 350 350 350 350 350 350 349 349 349 347 347 347 347 347 346 346 345 344 344 343 342 341 340 339 340 340 340 341 342 339 338 341 340 345 338 337 340 340 340 340 340 340 338 337 337 337 337
350 352 349 347 347 346 345 345 346 347 349 351 354 357 357 356 355 354 353 352 353 355 353 353 355 355 354 354 353 353 353 353 353 352 352 352 351 350 351 351 350 350 350 350 349 349 348 347 347 346 346 346 345 345 345 344 343 342 341 341 340 340 342 342 343 341 341 340 339 339 339 342 339 338 339 339 340 339 339 339 338 338 337 337 338
351 350 350 348 349 344 343 343 344 345 347 348 349 351 356 355 354 353 354 355 355 355 355 354 353 354 353 353 352 352 352 352 352 352 352 352 351 351 351 350 350 351 350 348 347 347 346 346 346 346 345 345 345 345 345 344 343 341 341 341 341 341 341 341 340 339 340 338 337 339 340 339 337 335 338 339 340 339 338 338 338 337 337 336 336
348 350 348 346 346 341 341 340 342 345 345 346 346 347 349 355 355 354 354 354 354 354 354 353 353 352 353 353 353 351 351 352 352 352 351 351 351 351 351 351 351 350 348 347 346 346 347 347 346 346 345 344 344 345 344 344 342 341 341 340 341 338 340 341 339 338 339 336 338 341 339 339 337 339 338 339 340 339 339 338 337 337 337 336 335
346 349 347 344 346 343 340 341 342 343 343 343 343 344 346 353 355 354 353 353 353 353 352 353 352 352 352 352 352 351 351 351 352 351 351 350 351 350 350 350 351 349 347 347 346 346 347 347 346 345 345 344 344 344 344 343 342 341 341 341 339 340 341 343 344 339 340 337 341 339 339 339 338 340 338 339 340 339 338 338 337 337 336 336 335
345 349 349 349 347 345 343 341 341 341 341 341 342 344 344 349 352 352 352 352 352 351 352 352 352 352 352 352 352 350 350 351 352 351 350 350 350 350 349 349 350 349 347 346 346 347 347 346 345 345 345 344 344 343 343 344 343 342 341 341 341 340 341 338 331 335 338 338 338 337 338 338 340 341 337 339 340 339 337 337 337 335 335 334 334
345 348 349 348 347 347 345 343 340 340 340 340 341 344 345 348 352 352 352 352 351 351 351 351 352 352 352 351 351 350 351 351 351 350 350 350 349 349 349 349 349 348 347 345 345 344 345 345 345 345 345 344 345 344 343 343 342 341 339 340 340 340 338 341 335 332 336 339 337 338 337 337 340 338 337 339 338 338 338 336 335 334 334 333 333
339 347 346 347 348 346 346 346 344 341 339 339 341 343 345 347 351 351 352 351 351 351 351 351 351 351 351 351 350 350 350 351 351 350 350 349 349 349 349 348 347 347 347 345 344 343 344 345 344 344 344 345 344 344 343 342 341 340 341 339 339 339 342 343 333 334 335 339 337 338 338 336 339 340 338 338 337 338 336 335 334 334 333 333 332
329 336 345 347 349 348 346 345 345 347 348 342 341 343 346 347 350 351 351 350 351 351 351 350 350 351 351 351 351 351 351 350 350 350 350 349 348 348 348 348 347 347 346 345 344 343 344 344 343 344 344 344 344 343 342 341 341 341 340 339 338 340 340 340 335 336 338 337 339 338 338 339 340 338 338 337 337 337 335 335 334 333 332 332 331
324 327 332 343 344 349 348 350 349 348 349 349 349 348 346 347 350 351 351 350 350 351 351 350 351 351 351 352 352 351 351 351 350 350 349 347 348 348 347 347 347 346 346 345 344 343 342 343 344 344 344 344 343 343 342 341 341 341 340 339 339 339 340 339 334 334 331 334 339 338 337 339 339 338 337 338 337 337 335 334 333 333 332 332 331
324 325 326 331 341 345 347 348 349 349 349 348 349 353 348 346 348 351 351 350 350 351 350 351 351 352 352 351 351 352 351 350 350 349 349 347 346 344 347 347 347 345 345 345 344 344 342 342 342 342 343 343 343 343 342 341 341 341 340 340 339 340 336 333 336 335 328 335 339 336 337 339 336 335 336 337 337 336 334 333 332 332 332 330 330
325 325 326 326 330 333 341 344 347 348 350 351 350 352 352 347 346 347 347 350 350 351 351 352 351 352 352 351 348 351 349 350 349 346 348 348 345 346 347 347 347 345 345 344 344 344 343 343 341 342 342 342 342 342 343 342 342 342 341 340 340 337 337 339 333 333 337 331 333 333 338 337 336 336 337 337 337 335 334 332 333 333 332 331 331
325 323 324 324 326 329 331 337 342 349 349 348 347 347 352 349 351 353 351 350 351 351 352 350 351 349 350 350 349 345 343 346 346 346 347 346 347 346 347 347 347 346 345 344 343 343 344 343 342 341 341 340 340 339 342 342 342 341 340 340 339 336 340 337 335 334 335 332 336 336 336 336 335 336 335 337 336 336 334 332 333 332 331 330 330
319 323 323 323 326 327 328 331 336 342 349 347 348 347 351 351 352 349 350 349 351 350 344 343 343 343 341 343 343 341 342 345 345 345 343 344 344 347 347 347 347 346 346 345 344 344 344 342 340 339 339 338 336 334 336 340 341 341 341 342 337 338 339 338 333 338 330 337 334 337 336 336 335 336 335 333 334 334 334 333 333 332 330 329 329
318 321 322 324 324 326 326 328 334 338 344 347 347 346 346 346 345 345 343 347 346 348 341 341 339 343 340 341 346 346 343 346 344 344 346 342 346 345 347 347 347 347 346 345 344 343 342 341 339 339 338 338 337 333 333 335 338 340 339 337 336 338 338 337 333 336 338 334 333 338 337 335 335 335 335 334 334 335 334 333 333 332 329 330 329
319 323 323 322 324 325 328 329 330 336 338 347 347 345 345 344 344 344 345 346 346 346 345 344 341 344 344 342 347 347 343 343 344 343 346 346 346 341 345 341 344 345 345 340 340 341 341 339 339 337 337 336 335 333 334 335 339 337 337 337 338 338 337 338 336 337 339 335 334 337 338 337 337 335 335 335 334 334 333 333 333 331 330 330 328
321 320 321 320 322 322 323 326 330 330 335 338 344 344 345 341 338 342 342 344 344 344 346 345 346 347 347 342 345 342 342 340 345 342 343 344 344 341 338 339 340 342 342 338 337 337 337 336 335 336 336 336 334 333 335 336 337 337 336 337 337 338 337 336 335 338 340 339 334 338 340 340 338 334 335 334 334 333 334 332 334 332 329 327 328
318 320 321 321 320 321 322 324 327 330 331 332 339 343 342 339 339 340 339 339 342 343 346 346 346 345 345 343 341 342 344 347 343 345 344 344 342 343 341 339 340 339 337 337 337 336 336 336 335 335 335 335 333 333 333 335 336 337 337 336 336 335 336 336 336 335 338 338 337 337 338 340 338 335 334 334 334 334 334 333 333 332 329 329 327
320 320 320 321 322 320 322 323 325 328 331 330 333 335 338 339 338 339 337 337 339 340 345 346 346 347 344 343 345 346 341 342 340 342 345 342 341 342 343 340 341 338 337 339 337 338 336 338 337 335 334 333 333 333 332 330 335 337 336 336 336 336 336 335 338 338 337 339 337 338 340 338 340 338 336 334 334 333 334 334 333 333 330 330 329
320 321 320 320 320 321 323 323 325 326 327 330 332 332 334 335 337 337 338 333 338 339 341 343 345 346 346 343 343 346 344 340 342 342 341 344 341 345 345 339 340 338 339 337 338 338 338 337 337 336 337 334 333 334 331 331 334 336 335 336 335 335 336 336 337 337 336 337 341 337 340 340 340 339 336 335 334 333 334 334 334 331 330 330 330
321 321 320 320 321 321 321 321 326 326 326 327 330 331 331 332 332 331 331 336 337 337 337 339 341 342 343 343 341 345 344 343 344 350 343 343 344 342 341 341 340 341 341 338 338 339 337 337 338 337 334 334 333 334 333 332 330 333 334 336 337 337 337 336 336 334 336 339 338 338 340 339 339 337 337 336 335 334 334 334 334 332 331 329 331
322 321 320 320 322 320 321 322 323 328 326 325 327 330 331 330 328 331 331 329 330 335 334 337 334 337 340 343 344 345 340 342 345 345 344 345 346 342 342 341 344 339 342 341 340 339 338 337 337 335 335 333 332 332 332 332 331 330 332 334 336 338 337 338 336 335 334 336 337 341 340 340 337 336 335 334 338 336 334 335 334 332 332 329 327
321 320 319 321 321 321 321 324 324 327 327 324 326 326 327 327 329 330 329 328 333 329 331 334 340 337 336 339 343 342 343 343 342 342 345 345 344 343 341 338 338 342 341 344 341 339 338 335 336 338 337 336 333 334 334 331 331 329 331 332 336 338 337 338 337 335 335 335 336 341 342 338 339 335 334 336 337 337 335 335 335 333 332 331 330
319 320 320 321 322 323 324 324 323 325 324 323 324 324 325 324 327 328 329 330 332 330 325 328 331 334 336 338 341 344 343 343 341 339 343 341 344 343 342 341 342 342 345 344 340 342 339 338 338 337 336 336 334 334 332 332 331 331 332 331 335 336 337 337 338 337 334 335 334 334 339 340 340 336 333 337 335 337 337 336 335 334 332 331 329
318 319 322 321 322 322 322 323 322 322 322 322 324 321 323 323 324 325 327 326 329 330 330 330 326 329 333 336 336 339 343 343 341 342 339 341 341 344 343 340 341 343 343 343 341 341 339 337 337 337 336 334 331 332 330 330 328 330 331 332 334 337 338 337 337 336 337 335 334 335 333 335 336 338 335 336 336 335 335 338 335 335 334 333 330
319 321 320 320 321 322 322 322 324 322 321 322 321 320 323 322 321 323 326 326 327 329 330 331 330 330 330 332 335 336 339 341 340 342 339 340 338 342 339 340 342 345 344 343 342 344 341 337 337 335 335 333 332 330 330 330 330 330 331 333 330 332 337 337 336 335 334 336 336 334 335 333 334 338 337 335 335 334 335 336 336 336 335 334 332
321 321 320 320 320 323 325 324 326 325 325 325 325 326 324 324 323 322 325 327 325 326 328 329 329 329 330 331 334 335 334 337 340 340 340 339 339 341 340 340 344 344 345 341 341 340 341 339 336 336 333 332 330 329 330 329 329 329 331 332 332 332 333 335 335 333 333 335 333 334 334 333 335 334 334 335 334 333 333 334 336 336 336 335 335
323 323 320 321 321 323 326 326 325 326 327 326 326 326 325 325 324 326 326 326 323 325 324 327 328 330 329 329 332 332 334 337 338 337 339 337 339 337 342 346 345 344 343 341 338 339 338 336 338 336 336 332 330 329 328 330 328 330 329 331 331 332 332 333 333 334 332 333 333 332 332 332 332 336 336 333 335 334 333 332 335 334 333 335 334
325 325 323 322 321 322 325 327 328 327 327 325 325 324 325 326 324 326 328 326 327 325 323 325 328 327 329 330 330 331 333 331 334 334 338 336 337 339 340 341 341 340 341 340 339 340 341 340 336 338 336 335 332 331 329 329 328 326 329 328 330 330 332 332 333 332 332 331 333 331 330 331 332 331 332 333 332 333 331 333 334 332 333 331 334
326 327 326 325 324 324 326 327 328 328 326 327 328 327 327 321 319 320 320 321 324 325 325 325 324 327 329 329 331 331 331 331 333 333 334 334 335 337 337 338 339 338 337 337 338 338 340 342 338 337 339 336 336 335 334 331 327 326 327 327 328 331 332 332 333 331 331 332 331 330 329 331 331 331 333 333 333 333 334 333 333 334 333 331 332
326 327 327 327 326 327 328 328 327 325 324 326 322 318 317 315 315 317 316 317 321 321 328 326 326 326 328 329 329 331 330 330 330 332 333 331 331 333 332 333 335 337 336 336 339 338 338 338 340 338 336 337 337 338 336 332 329 327 327 327 329 330 329 330 332 331 332 332 332 330 329 330 332 332 331 332 332 332 333 336 335 332 332 332 332
326 326 327 326 326 325 326 326 327 324 325 321 319 317 315 314 316 315 314 316 316 319 323 327 325 327 328 327 329 328 329 329 329 329 331 329 330 330 330 330 333 332 333 334 336 337 339 340 341 340 338 335 334 338 336 333 328 325 327 327 330 330 331 331 330 330 330 330 331 329 329 331 332 331 333 333 332 333 332 333 335 333 332 334 331
324 326 325 326 326 326 326 326 327 323 321 322 321 318 317 315 315 314 314 314 314 315 316 324 325 328 327 328 327 327 327 327 328 328 329 328 329 329 331 330 331 330 331 332 334 335 337 338 338 335 337 336 332 334 335 334 326 323 321 323 325 329 331 330 329 329 329 330 331 330 330 329 329 331 332 332 333 332 332 332 333 333 333 335 333
325 325 326 325 325 325 325 326 326 324 322 323 323 319 320 320 319 319 317 315 320 322 323 323 326 324 326 326 325 325 324 325 326 327 327 328 328 328 328 329 331 331 330 330 332 333 335 335 336 335 332 334 335 336 339 333 325 325 325 322 319 320 325 326 330 330 329 330 330 329 328 328 328 329 331 332 331 332 331 331 332 332 333 334 335
324 324 324 324 324 324 325 326 326 325 323 320 320 320 323 326 327 325 325 322 320 324 326 326 325 325 323 324 325 324 323 324 324 324 326 326 328 327 327 328 328 331 332 331 333 333 334 335 336 336 333 328 328 330 333 332 330 327 319 319 321 321 317 321 324 327 330 329 329 328 328 328 328 329 330 329 330 331 332 332 331 332 333 333 333
323 323 324 324 324 324 325 327 326 325 324 319 322 324 325 328 327 326 326 325 323 319 318 317 320 321 322 322 321 322 323 323 324 324 325 325 326 328 328 328 328 329 331 330 329 332 335 335 335 334 333 330 330 334 332 336 331 332 326 320 318 317 318 320 324 325 328 326 327 328 329 329 328 328 328 328 329 331 331 331 333 332 334 333 333
321 323 325 326 325 324 325 327 326 324 322 322 322 323 320 318 316 315 314 314 314 315 314 315 317 319 319 322 322 321 321 322 322 323 323 324 326 327 328 327 326 328 330 330 330 330 330 332 335 336 333 333 332 331 331 332 331 331 329 330 328 320 318 321 321 320 329 329 328 327 328 330 330 329 328 328 328 329 330 330 331 331 332 333 333
321 324 325 327 326 324 325 328 326 323 323 322 321 320 321 320 318 317 316 315 313 317 319 321 320 319 322 321 321 322 321 322 322 323 323 324 324 325 325 326 326 326 329 330 329 331 331 333 335 335 334 334 332 329 329 330 331 331 330 330 329 327 324 321 320 321 318 325 328 327 327 328 329 328 327 327 328 329 329 328 329 329 330 332 332
322 322 325 327 326 325 326 328 326 323 322 322 320 321 320 319 320 319 318 317 317 317 319 320 320 320 319 321 321 321 322 321 321 321 322 323 323 323 324 324 324 325 325 326 328 330 331 333 334 335 334 335 333 329 328 330 327 329 333 331 330 328 326 324 324 322 320 319 322 328 329 330 330 330 329 328 328 328 330 330 327 328 330 330 331
321 321 324 329 330 327 328 329 325 324 321 322 320 318 321 320 319 319 316 318 319 319 319 318 319 319 319 320 320 320 320 321 321 321 321 322 323 322 323 322 322 323 322 324 326 327 330 331 333 334 336 335 336 333 329 330 331 329 331 330 330 327 326 323 323 325 321 319 319 322 324 328 330 330 328 329 328 330 329 328 327 327 330 330 329
322 323 328 331 330 329 329 328 325 323 323 321 322 321 320 318 318 318 317 318 318 319 318 317 318 318 318 319 319 319 319 320 321 320 320 320 321 322 322 322 322 323 323 322 324 325 328 330 331 331 335 335 337 336 332 333 332 334 333 332 328 326 324 323 324 323 323 324 319 320 324 323 322 324 330 329 329 328 329 329 329 326 328 328 329
324 326 329 330 330 329 329 327 325 324 324 321 321 321 321 319 319 319 319 319 318 318 318 318 317 318 317 318 318 317 318 319 319 321 320 319 320 321 321 322 322 323 322 322 322 324 326 327 329 331 332 333 334 335 334 334 333 333 334 332 328 326 324 322 322 323 323 322 321 320 322 322 322 324 327 329 329 328 328 329 328 327 328 329 327
Wind_Speed
6 8 7 8 7 8 6 6 7 6 5 6 6 7 9 10 11 12 13 13 13 13 13 13 14 12 11 11 10 9 10 9 9 9 9 10 10 10 10 11 11 12 13 12 13 14 14 14 14 14 15 16 16 16 16 16 15 15 15 15 16 18 18 16 15 17 16 14 16 16 16 15 15 15 14 14 12 10 10 10 11 11 10 12 13
8 8 8 8 8 7 6 5 5 6 5 6 6 7 8 9 10 11 13 13 13 13 13 13 14 12 12 11 10 10 9 9 8 8 9 10 10 10 11 11 11 13 13 12 13 14 14 14 14 13 14 15 17 16 16 15 14 15 14 15 17 17 17 16 15 15 14 14 16 16 16 15 13 13 13 12 12 14 14 13 11 10 10 14 14
7 7 7 9 8 8 5 6 5 5 5 5 7 9 8 9 8 9 11 13 12 12 13 12 14 13 12 12 11 10 8 7 7 8 8 9 10 11 11 12 12 13 14 13 13 13 13 14 13 13 13 14 16 16 17 15 14 15 14 15 17 17 16 15 15 15 13 14 15 16 16 15 13 12 13 12 11 11 14 16 14 13 10 13 13
7 7 6 8 7 7 8 6 5 5 6 6 7 9 10 10 9 8 9 10 12 12 12 12 13 13 12 11 11 10 9 7 8 9 9 8 10 11 12 13 13 14 14 14 12 12 13 14 13 13 12 13 15 16 16 17 15 14 15 15 18 17 15 13 12 12 11 14 18 15 10 10 11 13 14 13 13 14 14 14 16 15 14 13 14
7 7 7 6 8 8 7 7 6 6 6 7 7 10 10 10 10 9 9 12 6 6 13 12 12 13 12 11 12 12 10 10 9 9 9 8 10 11 12 13 13 14 14 13 12 12 12 13 13 12 12 12 14 16 17 17 15 13 14 16 17 16 14 13 11 9 7 8 13 6 9 10 9 12 12 13 13 13 14 14 14 12 13 14 14
5 6 6 7 8 10 8 8 6 7 6 7 9 11 10 10 10 11 11 13 10 7 6 13 11 11 12 12 12 12 11 11 10 9 8 8 9 10 11 12 14 14 14 14 12 12 11 11 13 12 12 13 13 15 17 17 15 14 14 15 16 15 12 10 11 10 9 13 10 1 8 10 9 9 12 11 12 13 14 14 13 12 13 14 13
9 6 6 6 8 8 8 8 6 6 6 7 9 11 11 10 10 11 12 12 11 11 5 10 12 11 11 12 12 12 12 12 10 9 8 8 8 9 10 11 13 14 14 14 12 11 11 10 11 11 11 13 14 15 17 17 16 15 14 14 15 13 11 8 8 9 10 8 6 7 6 9 9 8 11 11 11 13 13 11 10 11 13 13 13
8 6 5 5 7 9 8 7 6 6 5 7 8 11 12 11 9 10 13 13 11 13 12 10 10 10 10 12 11 10 12 13 11 9 8 8 10 10 10 10 11 12 13 12 12 10 10 10 10 10 11 13 14 15 16 16 15 14 14 14 13 11 8 7 6 7 6 6 6 6 7 9 9 8 10 11 11 11 11 11 12 11 10 11 10
9 9 8 9 8 12 9 8 9 7 6 5 6 9 11 10 10 10 12 13 11 12 12 12 12 11 9 10 11 10 11 11 10 9 8 10 11 10 9 9 9 8 8 9 8 7 9 9 9 10 12 14 14 15 15 15 15 13 13 13 11 10 8 6 7 8 7 2 5 7 7 9 8 9 10 11 11 11 9 11 11 13 12 11 11
11 9 11 8 9 14 13 14 16 14 8 5 5 8 10 10 10 10 11 12 12 11 9 11 11 12 11 11 11 12 10 10 10 10 8 10 11 11 10 9 8 8 8 9 8 7 8 9 9 11 13 14 14 14 13 13 13 13 11 12 10 8 7 6 9 9 3 5 6 6 8 5 10 9 10 9 9 10 14 17 14 11 10 13 14
14 12 12 13 10 12 14 17 16 14 13 12 6 5 9 10 11 11 12 12 10 10 10 9 12 12 12 12 11 12 10 9 9 10 9 9 9 9 9 9 9 9 9 8 9 9 10 10 10 12 13 14 14 12 12 13 13 12 11 10 9 10 9 11 11 3 5 6 8 6 8 10 9 8 9 9 10 11 13 14 11 11 12 13 13
15 16 16 14 15 12 13 10 10 10 10 9 8 9 4 10 11 10 11 10 11 11 12 10 11 11 12 12 11 11 10 9 8 9 9 9 8 8 9 9 9 9 10 12 12 11 11 12 13 13 13 14 13 12 12 12 12 12 9 8 7 7 6 8 8 3 2 9 8 5 6 9 11 10 9 9 11 11 11 11 11 11 11 12 12
17 14 14 12 11 10 11 10 9 10 9 5 7 7 8 4 9 11 11 10 10 10 11 11 11 11 11 11 11 10 9 8 7 7 8 8 9 9 9 9 10 10 13 13 13 12 12 12 13 13 13 13 13 12 12 12 11 11 9 6 5 6 5 9 8 3 5 7 5 3 9 10 10 12 8 10 11 10 10 11 11 11 11 11 11
17 14 11 7 5 9 12 9 7 8 7 5 3 3 4 2 7 10 10 10 10 11 10 10 11 11 10 10 10 9 9 8 7 8 8 8 8 8 8 9 9 12 14 14 13 12 12 13 12 13 13 12 13 12 12 11 9 8 7 4 5 7 7 10 11 2 5 5 2 7 7 8 9 11 8 9 10 10 10 11 11 11 11 11 10
16 15 14 9 8 8 12 10 7 6 5 5 3 1 1 3 7 9 10 10 10 10 10 10 11 11 10 10 10 9 9 9 7 9 8 8 8 8 8 9 9 11 13 14 13 12 12 13 12 11 11 11 11 11 11 11 8 6 5 2 6 4 9 8 5 4 3 2 5 4 7 10 9 8 9 9 10 10 10 11 10 10 11 10 10
17 14 13 10 10 12 9 9 5 3 5 3 3 4 3 3 6 8 10 10 10 9 9 9 10 10 9 9 9 9 9 8 9 8 8 8 8 8 8 9 9 11 12 14 12 11 12 12 11 11 11 11 9 10 10 10 9 6 3 0 5 8 8 9 8 4 3 2 3 3 12 9 11 9 8 10 10 10 10 10 10 10 10 10 10
16 17 15 11 11 10 10 8 5 2 4 2 1 5 3 2 5 7 8 10 10 9 9 8 8 8 9 9 10 10 9 9 9 9 9 8 9 8 8 9 9 10 13 14 12 12 12 13 13 13 12 10 10 10 10 9 9 6 4 1 5 8 10 10 4 2 2 3 4 4 10 8 7 6 9 9 9 10 9 10 10 10 9 10 9
12 14 15 13 9 9 9 7 5 3 2 1 3 7 3 2 4 6 9 8 9 9 9 8 8 9 10 9 10 10 10 9 9 10 9 8 9 9 9 9 9 9 11 14 13 12 12 13 13 13 11 10 10 10 10 9 8 6 5 1 3 9 9 11 5 3 5 2 2 4 11 11 6 5 9 9 9 10 10 10 10 9 9 8 9
11 11 12 15 12 8 8 7 5 2 2 3 4 4 3 2 3 6 8 8 9 9 9 9 9 9 10 10 11 12 11 10 10 9 9 10 9 10 10 9 9 10 11 15 14 12 12 12 12 11 11 11 11 11 10 9 8 7 6 4 1 6 11 9 5 3 5 2 2 9 8 11 8 4 8 9 8 9 9 9 9 9 9 9 8
9 9 9 10 13 12 7 5 5 7 6 5 5 5 5 1 2 5 7 6 7 8 9 9 10 10 10 10 11 12 12 11 13 12 10 9 10 11 10 10 10 10 11 14 14 11 11 12 11 10 9 10 10 9 9 9 9 8 7 5 5 8 6 7 4 2 3 4 3 8 12 9 7 5 7 8 9 10 9 8 8 9 9 7 8
8 9 7 6 8 10 12 8 7 6 6 6 5 5 6 2 2 4 3 5 6 8 8 8 9 9 10 10 10 11 11 10 12 11 12 11 9 10 11 11 11 11 11 13 13 11 10 9 9 8 7 7 7 8 7 8 8 7 7 7 7 6 5 3 0 0 2 4 4 9 12 10 6 8 8 9 9 9 9 7 8 9 8 8 8
8 8 7 7 6 6 8 8 5 6 6 6 6 5 5 6 7 5 7 6 6 8 9 10 11 10 11 10 10 10 8 8 10 10 9 11 9 10 10 11 11 12 10 11 12 11 9 7 8 8 7 7 10 8 7 7 7 6 6 7 6 6 3 0 2 2 2 2 9 10 11 7 6 8 7 10 8 9 8 7 9 10 9 8 8
6 7 7 6 5 3 4 6 8 6 5 5 4 5 6 6 6 7 4 5 7 10 9 10 10 10 11 10 9 8 8 6 9 10 10 11 11 9 10 12 11 11 11 11 11 10 8 6 6 6 7 8 8 6 7 6 6 7 6 6 6 6 3 0 2 2 2 6 8 13 9 4 6 8 7 5 7 8 8 7 9 9 8 8 7
5 6 6 5 5 4 4 3 4 7 4 4 5 5 5 3 3 5 5 5 6 8 8 9 9 9 8 8 7 4 5 2 6 12 13 11 9 10 10 12 12 12 13 11 13 12 11 8 7 6 6 7 6 6 7 6 7 6 6 6 6 5 2 3 4 3 1 4 9 12 9 4 2 7 7 7 6 8 8 7 8 8 7 7 6
4 7 7 5 5 3 2 3 3 2 8 4 5 6 1 3 6 3 1 5 6 5 5 7 8 6 8 8 4 2 5 4 2 7 6 9 8 10 10 9 9 10 13 9 9 10 10 9 7 8 8 7 7 3 4 6 7 6 6 5 6 4 2 2 4 1 2 9 9 11 9 3 4 6 7 7 7 7 7 7 8 8 8 8 5
5 6 6 5 3 6 4 2 1 3 1 5 3 6 4 1 6 3 4 5 5 6 6 5 5 4 4 7 8 6 3 8 7 8 6 6 4 8 10 10 10 10 11 9 9 9 9 10 10 9 8 8 4 4 4 4 6 4 6 5 4 4 3 3 3 2 1 7 10 11 10 3 4 5 7 7 8 7 7 6 8 10 7 6 6
6 7 6 5 4 4 4 3 3 2 2 1 8 7 3 5 5 5 4 5 4 6 7 6 5 4 3 4 5 7 4 4 4 5 6 6 7 9 10 10 10 10 10 8 9 9 8 9 8 7 7 5 6 5 5 3 4 5 4 4 5 4 3 3 3 3 2 4 10 13 11 6 4 4 5 7 8 7 7 6 7 8 7 6 5
7 7 6 5 5 6 6 4 3 3 1 3 1 6 6 5 2 3 6 5 7 5 6 5 5 4 4 4 8 3 5 3 5 5 6 9 8 11 9 9 9 9 10 9 8 9 7 6 6 7 6 6 5 5 5 6 5 5 5 6 5 5 4 4 3 2 2 4 9 11 12 7 4 4 6 6 7 7 7 7 8 8 6 6 5
8 7 6 6 6 5 5 5 3 1 2 3 2 3 4 5 5 5 3 3 5 4 5 6 5 5 8 8 8 2 5 7 7 5 7 6 7 8 6 9 9 8 9 9 7 8 7 8 7 6 5 5 5 5 5 6 5 5 6 4 4 5 5 4 4 4 4 4 8 10 12 11 9 4 5 5 7 7 7 8 8 6 6 6 5
8 7 6 5 5 6 6 6 4 2 2 1 1 3 2 4 6 5 6 3 2 2 7 5 4 4 4 6 5 5 5 3 4 2 4 3 6 8 9 8 8 8 8 8 6 6 7 7 6 6 5 5 5 4 4 4 6 6 6 6 6 6 5 5 5 4 5 4 4 10 13 11 9 8 4 5 5 7 7 8 7 6 5 5 7
8 8 6 6 5 6 6 7 7 5 3 3 3 2 1 2 2 3 4 4 4 0 3 4 5 6 5 7 6 4 4 3 3 1 1 6 4 6 7 7 6 9 6 6 6 6 6 5 6 7 6 5 5 5 5 5 5 6 6 7 6 6 5 5 6 5 6 4 5 8 10 10 10 9 7 3 2 6 8 8 8 7 6 6 5
8 8 7 6 6 7 7 7 7 5 5 4 2 3 2 2 3 1 3 3 3 2 4 3 2 4 5 5 5 5 2 1 4 4 3 3 5 6 5 8 11 9 8 6 7 6 6 7 9 6 6 5 5 4 5 4 5 6 7 8 7 6 5 5 6 7 6 5 5 7 8 8 9 9 9 7 6 3 5 8 9 8 8 7 6
8 8 9 8 7 7 6 6 6 5 5 5 4 3 2 3 2 3 4 1 1 2 1 1 1 1 3 4 5 3 1 1 2 6 5 4 5 4 4 7 8 7 6 7 7 6 6 6 5 5 5 5 5 5 4 5 6 7 7 8 6 7 6 6 7 6 6 6 6 5 7 8 9 11 10 8 8 5 4 6 10 9 8 6 6
9 9 9 8 6 5 5 5 6 7 6 6 4 5 4 2 2 3 3 2 2 1 2 1 2 2 3 3 3 3 3 1 3 3 5 4 5 4 2 5 8 8 5 6 5 6 5 6 6 5 5 6 6 5 5 5 7 6 6 7 7 7 7 7 7 7 6 7 6 6 5 7 8 9 9 11 9 8 5 3 6 9 8 9 7
9 9 10 9 8 7 5 5 5 6 6 6 6 5 5 4 5 4 4 4 1 1 2 1 1 1 2 1 1 2 2 1 3 4 3 4 6 3 4 7 9 5 5 6 5 5 6 6 6 6 7 7 6 7 7 7 7 7 6 6 7 8 8 7 8 7 8 6 5 6 5 5 4 9 9 9 13 13 11 7 5 8 10 10 10
10 10 10 10 9 7 6 6 5 5 5 4 4 4 4 4 4 4 4 4 3 3 2 2 2 1 0 2 0 1 1 2 2 2 4 4 4 3 5 7 6 1 2 1 5 6 5 6 6 6 7 7 7 7 7 6 7 7 6 6 7 7 8 8 8 9 8 8 8 7 6 6 5 4 4 7 10 12 14 10 7 10 7 9 11
10 10 10 10 9 9 6 6 6 4 3 3 3 3 4 3 4 4 4 4 4 3 2 1 1 1 2 2 4 3 3 3 3 1 3 3 4 6 7 4 2 2 3 2 4 6 6 6 6 7 7 7 8 10 8 7 6 6 7 7 8 8 8 8 9 9 9 9 7 9 8 8 7 7 5 6 6 10 15 15 12 12 9 6 10
9 9 10 9 10 8 7 6 5 4 3 2 2 2 3 2 4 3 4 3 3 4 4 2 2 2 2 3 4 4 2 3 3 2 2 0 4 2 3 2 2 3 3 3 5 4 4 5 6 7 8 8 8 9 7 7 7 7 6 8 8 8 7 7 8 8 9 8 8 10 9 8 8 8 7 7 8 6 10 14 15 15 13 10 7
8 9 9 8 8 7 7 6 4 4 4 2 2 4 5 3 4 4 5 5 3 4 3 2 3 2 3 3 3 3 3 3 2 1 2 2 3 3 3 2 2 3 3 6 7 5 6 5 6 4 5 9 8 8 9 6 8 4 6 9 9 9 7 7 7 8 7 8 9 9 8 8 8 9 8 8 7 8 9 10 10 9 10 14 12
9 9 9 8 7 8 6 6 5 4 3 3 2 1 3 4 4 5 5 5 4 4 2 3 2 2 3 3 3 2 4 4 3 2 2 2 3 3 2 3 4 3 4 5 6 7 8 7 6 3 6 9 10 7 8 8 6 6 6 6 8 9 11 9 9 9 9 10 10 8 9 9 8 8 9 8 9 9 8 10 10 10 9 14 14
10 10 10 9 8 7 7 6 5 3 2 1 3 3 3 3 3 5 4 5 5 4 2 2 3 4 3 4 3 2 3 3 3 2 4 3 3 3 3 3 4 5 5 5 6 8 9 8 5 4 5 8 10 10 8 9 9 6 5 8 7 9 9 11 11 10 10 9 8 9 8 8 8 9 8 8 9 10 9 9 10 8 9 10 14
11 11 11 9 9 8 8 7 6 5 3 2 3 2 3 3 3 4 4 4 5 5 4 3 2 1 2 2 2 2 3 3 2 3 2 2 4 4 4 4 4 5 6 7 6 7 9 7 4 4 7 8 10 11 8 8 9 8 7 7 9 8 10 10 12 12 12 10 9 10 9 9 10 9 9 9 10 10 10 9 8 8 8 8 11
11 11 10 10 9 8 7 7 6 6 5 4 3 4 3 3 3 3 4 4 4 4 3 2 2 2 1 0 2 4 4 5 4 3 4 4 4 5 4 4 5 5 5 7 7 8 8 10 10 8 8 7 7 10 7 9 10 9 8 8 8 8 9 9 11 12 12 11 11 12 11 11 12 10 9 9 9 10 10 9 10 9 9 9 10
10 10 10 11 9 8 8 7 7 6 7 5 4 4 3 3 2 2 2 3 2 2 2 2 2 2 2 2 4 5 6 6 6 6 5 5 4 5 5 6 6 6 6 6 7 8 10 9 9 10 10 7 8 12 10 12 11 9 9 10 8 8 9 11 11 11 12 13 13 12 11 11 12 13 10 10 9 9 9 9 11 9 9 10 9
11 10 10 10 8 9 9 8 8 7 7 7 6 5 5 5 4 3 4 4 3 3 3 3 2 2 2 2 2 3 4 6 6 5 6 6 5 5 5 6 7 7 7 7 8 8 9 10 11 10 10 9 10 7 8 3 10 11 9 8 8 8 10 9 11 10 11 12 14 14 11 12 12 11 10 11 10 9 10 11 9 9 9 9 10
11 10 10 10 9 9 9 9 8 7 7 8 7 5 3 2 1 1 1 1 2 2 3 3 2 2 3 2 2 2 4 4 4 6 6 6 6 6 6 6 7 8 8 8 7 8 9 10 9 8 10 12 10 7 6 8 12 13 14 9 6 6 6 8 8 8 10 12 11 13 13 13 11 11 11 11 11 9 10 11 10 10 10 10 10
12 10 10 10 10 9 9 10 8 7 7 8 7 5 4 4 2 2 2 1 1 3 2 1 1 1 1 1 2 1 3 3 4 4 5 6 6 6 7 7 7 8 7 8 9 9 8 9 8 7 9 10 11 9 10 9 10 12 13 13 12 10 10 8 8 9 9 9 10 11 13 15 14 13 12 11 9 10 10 9 9 11 11 11 11
11 11 10 9 11 11 10 11 8 8 7 7 6 5 4 4 4 3 2 3 2 3 2 2 1 1 1 1 1 2 3 2 3 4 5 6 6 6 6 7 7 9 8 8 8 9 9 8 10 10 10 9 10 11 11 12 12 10 9 10 10 11 13 11 12 10 10 7 10 11 12 13 12 11 12 11 11 11 9 7 10 11 10 12 11
12 11 10 10 10 10 10 11 9 8 8 9 7 6 3 4 4 3 3 3 3 2 3 2 1 1 1 0 1 2 2 3 3 3 4 5 6 6 7 7 8 8 9 8 8 10 10 10 9 9 9 9 10 12 14 13 12 12 7 7 6 6 5 10 11 12 11 9 9 11 10 11 12 12 13 11 10 9 10 10 9 10 11 11 12
10 11 11 10 10 9 11 11 10 9 9 9 8 7 6 5 4 3 3 3 2 3 1 2 2 1 1 1 1 1 1 1 2 3 3 4 5 6 7 8 8 8 8 10 10 9 10 10 10 10 9 11 9 9 11 11 11 8 8 5 7 6 7 7 7 9 11 12 12 9 8 10 12 10 8 10 12 11 11 9 10 12 10 10 11
9 11 10 10 10 10 11 12 11 9 10 10 9 9 7 5 5 5 5 4 3 3 3 3 2 1 1 1 2 1 1 2 1 2 3 3 4 5 6 7 8 9 9 10 9 9 9 10 10 11 11 12 11 11 10 10 9 9 9 8 8 8 9 8 7 6 8 11 11 13 13 10 10 9 8 8 9 13 12 10 11 11 10 10 10
Wind_Direction
74 113 121 87 75 93 102 110 111 107 94 97 97 109 121 140 144 143 143 139 141 142 136 134 131 129 125 121 118 111 112 116 121 123 123 126 125 129 128 130 127 119 116 121 117 117 116 116 116 114 114 113 112 108 106 108 106 104 105 104 99 93 92 93 93 93 94 96 96 94 88 88 87 85 89 93 106 106 115 118 104 91 87 89 90
115 123 128 114 65 76 108 104 98 101 96 91 100 96 111 134 142 144 141 141 143 141 139 137 133 130 127 123 119 118 119 123 126 130 129 129 128 120 109 113 122 119 118 119 117 118 119 117 115 117 117 117 112 112 110 109 108 108 110 108 101 97 93 91 89 91 92 91 90 91 88 85 90 86 85 86 74 54 51 49 64 80 78 74 73
101 116 125 113 70 36 66 105 101 99 95 85 86 91 101 113 127 135 142 143 142 141 140 140 133 130 129 128 123 119 116 117 119 121 124 124 125 117 111 113 118 116 117 120 121 120 120 119 116 116 118 116 116 117 117 111 112 110 107 104 102 100 99 97 91 89 94 99 94 89 88 83 75 80 83 77 75 70 61 56 66 74 82 85 84
114 116 128 109 102 59 32 99 86 96 83 73 71 93 106 116 115 124 135 139 137 141 141 139 135 134 131 130 123 115 115 113 118 126 126 122 127 123 118 122 126 122 120 120 123 124 122 121 121 120 120 119 119 121 120 115 115 114 109 105 103 101 101 99 109 121 137 136 137 126 101 98 82 74 72 73 78 76 76 78 71 71 78 83 82
93 113 118 145 132 85 72 63 91 81 82 75 78 93 104 113 116 100 94 103 118 145 139 139 137 134 132 129 123 121 120 120 122 128 126 128 129 128 128 131 127 125 122 123 123 124 123 123 124 123 124 123 123 122 117 116 115 113 110 106 105 106 108 110 106 117 159 165 179 119 94 88 84 76 79 87 82 78 79 80 78 80 81 72 68
109 92 111 139 137 101 66 80 87 94 89 88 91 100 106 111 117 113 107 111 120 126 160 136 136 135 134 132 125 121 121 123 122 125 132 131 133 130 132 133 129 124 123 122 124 126 126 125 127 128 128 126 126 123 117 118 118 115 116 112 111 113 118 128 134 166 165 222 212 214 100 100 96 89 87 87 86 85 84 80 79 84 85 88 83
123 115 114 129 128 94 75 92 90 112 102 96 104 115 116 120 126 122 112 115 134 139 176 136 138 138 136 131 125 125 126 124 125 121 115 122 124 127 127 136 132 126 127 126 128 128 128 127 128 131 129 127 126 124 119 118 119 119 115 113 114 119 129 139 154 166 215 234 202 91 88 93 94 93 96 93 85 83 81 83 98 91 72 70 69
107 117 100 110 103 95 85 91 80 75 98 101 113 120 126 128 129 121 124 131 130 141 153 151 139 140 139 128 125 123 123 128 130 128 130 126 127 132 140 149 133 130 131 132 132 134 132 132 130 132 131 126 127 123 120 118 116 117 115 116 118 124 136 156 172 205 218 242 87 117 100 98 97 98 92 88 92 89 90 89 94 93 92 104 104
90 99 114 100 78 66 86 71 46 43 85 84 102 109 123 134 133 125 129 127 136 145 152 153 140 136 127 121 118 116 116 120 125 128 122 124 128 127 124 122 125 126 123 122 125 130 129 130 132 128 127 124 127 124 120 117 115 116 117 117 126 134 155 190 196 220 218 176 93 91 105 113 109 102 106 102 103 94 104 117 99 83 78 77 81
96 92 89 74 77 60 68 53 35 28 29 63 80 107 115 131 134 134 133 137 145 155 149 144 135 132 124 120 118 116 116 117 119 118 118 121 130 132 133 134 132 124 119 121 122 121 116 113 120 128 127 127 129 125 121 118 115 115 120 121 132 153 172 196 222 220 256 125 121 69 30 52 107 101 97 101 85 72 73 65 63 73 82 75 72
77 87 83 83 78 70 62 48 38 29 27 20 25 94 115 120 134 139 142 146 153 145 139 143 138 135 129 122 121 116 114 109 117 120 117 116 119 123 126 126 124 124 120 116 110 107 111 115 121 123 125 128 126 126 122 118 115 118 122 132 146 173 193 209 224 181 128 83 72 93 73 74 86 97 105 96 92 81 79 79 87 93 91 84 76
78 82 81 75 70 67 76 71 54 50 41 28 10 13 92 124 132 140 138 145 145 140 137 140 136 135 128 126 125 121 119 116 118 118 122 117 116 121 120 120 118 114 113 113 110 110 115 122 122 125 126 129 133 129 123 118 119 122 131 146 169 196 220 244 260 76 117 90 94 117 140 95 94 95 101 99 88 83 85 94 92 88 84 77 77
98 88 84 81 73 56 65 63 50 50 45 39 14 17 5 111 130 136 141 141 133 134 136 138 136 135 132 131 129 127 123 114 115 113 121 123 121 120 123 117 116 115 118 116 119 119 120 124 127 129 133 136 136 132 125 120 125 131 140 169 185 222 247 271 273 183 97 98 119 147 93 84 89 100 98 102 98 91 89 87 84 79 79 79 76
81 92 98 103 112 82 73 98 84 55 39 46 43 350 8 246 133 132 135 135 134 134 137 138 137 136 136 136 136 133 126 122 126 124 125 122 120 120 120 117 116 120 122 121 121 125 127 128 131 133 135 139 139 133 125 124 127 133 141 171 218 241 270 276 255 81 91 108 172 83 83 97 98 104 106 102 96 92 92 90 89 82 77 76 78
84 98 104 108 112 103 103 92 65 60 57 7 346 259 269 273 143 137 133 131 134 133 136 140 141 141 144 141 139 138 133 133 130 129 128 118 117 120 120 116 113 119 124 123 126 129 130 132 133 132 133 136 137 132 123 118 122 117 124 191 254 286 319 301 296 109 112 112 80 153 111 97 97 102 104 99 98 100 90 84 83 83 80 78 71
92 95 97 96 103 126 125 112 98 215 109 95 330 299 272 302 141 135 129 133 133 138 139 143 144 146 144 142 138 138 139 139 137 128 123 122 120 126 120 116 116 117 123 126 129 130 132 130 129 128 131 131 128 124 121 116 112 120 135 272 312 313 308 307 291 106 86 137 121 93 88 99 91 106 106 95 99 96 95 92 88 83 80 76 75
93 96 99 96 94 101 125 136 152 223 66 94 215 293 245 310 158 136 132 133 138 140 143 146 146 145 139 138 142 140 141 144 136 130 133 129 130 124 121 121 118 118 125 130 131 128 126 132 132 134 133 129 127 120 119 124 126 124 128 234 316 303 316 314 317 104 117 56 115 133 112 111 111 126 114 110 103 100 97 90 83 80 78 73 70
68 92 102 106 96 97 107 119 147 219 167 195 209 262 256 247 164 149 137 137 139 141 143 142 146 145 145 144 144 145 149 149 142 139 139 134 131 127 126 124 123 120 125 135 132 130 130 131 137 136 133 130 128 129 126 132 130 134 134 151 295 315 308 304 296 82 73 215 61 65 92 105 124 143 120 116 109 102 95 91 84 80 75 76 72
66 69 89 110 111 108 111 123 137 183 184 197 197 208 243 238 168 153 137 143 142 146 145 154 152 155 157 153 149 153 150 148 143 143 139 138 140 134 130 131 130 131 125 136 137 133 134 134 136 138 140 140 143 142 144 136 145 141 149 164 239 278 281 288 285 116 109 226 93 89 103 100 86 122 126 119 117 104 100 101 105 93 78 70 72
74 63 65 87 122 127 119 132 155 162 171 194 203 201 189 239 135 148 136 144 156 152 158 161 165 164 167 158 156 158 156 158 156 156 144 145 151 156 140 135 141 139 130 136 141 141 138 135 135 140 149 157 152 150 149 149 150 157 161 167 204 250 262 259 338 10 168 88 58 101 108 110 110 123 126 123 120 113 110 110 107 93 85 88 81
92 86 75 61 78 111 126 134 149 146 154 157 198 188 180 184 138 86 87 157 170 169 166 168 171 178 174 163 166 178 177 173 166 174 153 160 159 141 150 145 147 148 140 140 145 149 144 136 137 132 138 140 138 139 141 150 159 165 169 176 214 237 249 302 85 262 300 120 116 104 110 107 152 142 137 132 121 119 111 114 106 103 96 85 75
110 93 75 76 57 79 109 117 119 130 134 153 171 176 180 192 189 185 178 173 192 182 183 192 189 189 189 174 187 192 186 188 178 170 181 166 158 153 153 153 152 153 145 142 149 154 151 141 141 136 135 152 158 170 156 156 168 168 172 196 220 237 220 290 274 261 66 159 95 108 111 114 151 146 138 128 131 125 122 118 100 90 86 76 70
86 100 93 82 85 59 59 100 110 107 115 121 157 177 164 183 195 181 190 232 202 202 200 204 200 200 197 196 197 196 188 190 185 177 187 180 162 155 155 157 151 152 145 138 138 141 146 136 137 136 155 180 192 205 157 161 174 172 180 215 234 241 157 210 246 21 221 79 100 114 110 117 150 146 138 134 128 130 124 121 106 96 99 93 91
83 91 85 65 80 75 73 60 73 114 130 125 145 153 145 170 189 186 180 208 221 219 212 207 206 210 208 206 205 180 166 255 179 196 179 181 158 160 164 160 154 153 146 146 141 142 146 137 132 151 194 200 201 184 164 169 160 179 196 210 229 231 183 171 239 201 100 124 107 114 104 116 291 155 148 147 145 132 131 133 114 103 101 98 87
97 108 97 96 99 94 81 84 86 40 124 141 152 129 129 171 144 191 319 207 217 217 243 234 217 195 215 228 180 154 140 220 171 192 181 172 166 176 173 180 174 170 167 166 168 155 163 172 170 201 206 205 216 163 206 145 148 179 192 208 231 191 202 205 262 234 144 95 114 115 107 104 298 170 157 155 154 144 138 133 127 110 99 98 97
93 78 87 87 75 114 107 78 81 99 20 130 115 105 112 37 30 27 205 228 208 208 215 225 253 220 225 247 137 232 159 197 190 173 184 163 155 200 184 184 185 184 184 174 184 163 179 167 181 196 211 220 176 164 220 160 168 191 183 206 227 204 212 206 202 241 164 120 126 128 116 138 289 200 165 167 155 155 148 148 133 122 118 107 104
84 86 90 90 94 73 96 111 91 84 310 126 129 105 106 66 21 20 11 326 298 262 208 193 202 246 256 276 219 183 210 180 197 169 185 154 174 218 188 184 184 188 189 183 183 167 191 175 183 195 195 204 170 180 190 177 203 187 200 191 208 227 205 226 206 192 194 133 129 129 133 142 261 230 198 178 166 164 165 155 137 127 128 128 115
90 95 86 86 74 67 69 66 59 20 339 11 65 146 108 106 171 327 3 342 316 314 283 207 178 191 243 241 258 167 159 155 232 188 185 160 200 201 193 184 188 191 186 199 182 180 187 181 185 186 210 186 184 196 184 186 196 223 200 202 188 237 195 231 220 157 207 143 136 138 139 151 182 249 203 199 178 176 175 159 146 149 142 141 130
97 90 94 90 91 88 78 71 69 41 79 320 67 83 112 103 116 126 59 340 328 339 331 315 257 207 191 217 228 180 147 190 223 208 142 194 200 199 201 192 194 194 192 197 192 179 191 184 189 194 192 200 196 192 197 199 187 213 218 220 219 220 205 234 225 179 232 171 153 150 153 158 171 205 202 231 206 183 195 170 165 153 151 165 148
107 109 100 77 71 84 82 84 53 54 115 233 65 65 67 116 126 128 129 137 31 7 335 338 332 314 291 260 256 203 195 167 245 308 170 167 211 176 211 193 194 208 202 198 196 181 191 194 183 201 185 213 198 185 221 212 212 194 214 211 207 228 204 222 236 212 218 208 129 144 156 161 173 165 166 222 229 205 204 190 172 160 173 172 165
109 98 91 93 97 106 90 79 82 22 11 84 26 68 64 79 58 127 134 131 133 115 10 347 333 323 320 323 321 339 14 347 300 316 317 216 172 186 198 195 200 211 199 196 198 202 202 198 186 198 193 202 212 178 174 226 227 219 206 219 208 216 216 212 224 221 225 186 170 146 158 162 172 170 150 151 268 260 204 208 178 186 179 167 189
121 114 99 97 83 71 80 76 79 63 23 63 94 51 21 50 65 49 63 73 160 159 174 179 255 320 325 307 323 317 3 168 278 258 249 248 223 213 209 208 202 203 191 192 194 206 197 203 205 208 209 203 199 203 172 225 229 246 208 211 206 213 217 213 231 218 225 201 209 174 155 170 168 178 168 160 178 243 256 218 190 186 202 173 203
98 105 113 110 106 96 87 86 80 62 69 46 32 58 13 27 49 26 75 334 170 77 343 25 294 271 309 298 303 323 23 251 219 289 279 258 250 246 229 260 214 216 183 202 201 201 208 208 211 231 197 209 232 208 212 199 232 232 241 204 205 199 211 216 218 227 220 236 215 222 167 174 179 175 177 168 168 188 216 267 211 197 201 199 195
126 118 118 112 108 102 103 92 82 81 62 60 38 43 24 38 30 47 62 330 49 164 136 141 248 244 235 277 326 294 296 8 304 240 255 283 290 273 310 289 271 224 195 192 205 212 211 208 196 206 212 221 207 222 219 226 233 233 231 235 205 193 207 218 220 214 216 225 229 217 217 195 173 173 181 182 176 171 200 206 237 188 187 199 188
124 125 122 121 121 118 113 102 94 80 72 62 52 51 50 16 38 34 38 349 36 2 34 24 184 203 280 309 331 331 289 253 268 294 288 261 239 259 257 257 245 29 17 317 242 207 216 217 202 206 198 221 218 205 215 224 234 230 223 237 229 198 205 217 221 220 209 221 243 237 231 231 216 179 192 188 186 184 172 183 219 216 196 196 191
129 134 128 134 129 128 129 115 113 97 75 60 58 49 49 40 55 43 30 11 18 15 25 20 326 343 240 220 170 22 9 310 201 288 283 278 260 232 226 227 268 184 76 66 309 265 225 222 218 214 215 210 226 225 199 219 226 229 223 219 242 233 199 210 220 220 209 209 215 228 224 233 241 227 225 193 177 182 173 162 200 189 209 201 195
138 145 142 141 140 134 141 133 117 110 95 79 61 63 48 63 57 63 33 35 12 16 32 347 325 349 10 336 33 7 322 240 195 352 279 316 320 266 237 234 280 319 178 157 226 253 255 228 219 228 229 230 227 224 201 212 219 227 223 228 218 234 221 208 215 220 214 204 220 219 222 225 231 253 241 252 196 176 176 173 172 176 178 198 210
152 153 150 157 149 151 151 139 130 114 116 110 83 50 65 76 53 77 68 51 63 24 358 340 17 4 348 27 0 341 356 348 57 243 237 60 300 286 273 273 271 255 265 229 223 250 261 271 247 229 234 238 239 251 247 200 215 219 213 225 219 223 225 223 217 216 226 217 217 229 220 212 222 223 226 228 246 188 173 175 172 175 169 172 186
163 164 159 167 158 155 145 139 146 137 140 143 199 190 164 105 61 44 46 25 41 62 349 23 10 325 40 11 11 358 334 4 349 271 233 213 233 278 284 252 230 234 242 228 215 224 250 234 253 274 300 253 247 249 265 260 224 202 233 212 217 215 222 224 225 226 221 233 230 220 232 224 218 213 214 224 228 238 171 181 183 189 184 171 176
168 171 167 171 169 154 157 153 147 143 145 196 204 71 60 49 34 35 33 24 33 20 42 35 343 44 21 350 2 352 3 4 340 317 260 247 254 232 251 304 294 259 243 241 222 214 223 222 231 200 231 276 256 233 245 263 240 213 230 245 212 217 213 213 217 219 218 222 233 231 225 228 221 226 219 219 222 222 215 179 186 205 210 173 175
176 175 175 175 180 170 168 161 147 160 202 144 71 32 21 44 44 48 11 26 20 17 47 48 11 40 0 2 352 356 10 353 336 322 309 268 248 260 257 206 220 251 251 252 243 234 236 233 217 196 229 232 254 248 231 248 266 224 206 248 236 227 220 211 215 220 220 223 223 229 231 230 227 221 222 220 222 220 223 216 199 207 206 175 186
183 180 183 183 181 181 179 159 159 151 134 107 123 109 43 35 14 39 11 23 22 14 6 31 21 68 26 36 348 0 336 316 293 294 271 282 284 268 247 228 221 222 234 246 234 238 244 246 222 241 238 242 243 243 239 235 245 245 210 214 237 231 234 222 219 218 219 217 218 227 224 227 225 231 225 216 221 220 224 217 215 211 207 189 180
185 187 187 190 185 184 188 159 167 156 142 151 169 116 109 65 39 53 26 29 62 37 29 47 39 351 36 0 352 347 344 327 303 282 288 277 264 271 275 270 246 238 226 231 228 223 226 228 227 220 232 240 260 257 237 241 248 237 227 245 227 223 210 233 227 228 216 218 213 220 220 218 224 223 223 222 217 223 221 220 217 211 202 217 173
191 189 190 193 192 185 189 174 161 164 145 141 120 115 112 134 116 101 101 38 57 108 125 116 54 28 340 359 12 357 336 312 316 311 288 274 279 285 289 278 270 245 249 252 231 221 220 215 215 219 223 221 240 237 230 228 233 235 234 222 237 220 240 220 221 220 229 220 219 222 214 217 219 215 220 215 217 222 222 222 221 210 210 210 220
194 195 187 195 196 190 184 171 167 168 150 145 153 161 162 187 173 173 183 171 162 71 60 42 13 358 308 8 19 337 315 313 311 298 295 299 298 288 273 284 282 273 247 248 250 248 236 219 214 215 212 215 226 237 232 276 257 244 251 236 227 236 243 252 192 220 208 222 221 222 215 216 220 219 213 223 218 216 224 227 221 219 210 214 212
193 196 188 195 196 190 183 175 173 166 153 152 155 179 161 142 172 163 130 59 93 65 51 28 11 17 358 28 279 325 312 305 302 300 298 308 312 306 297 280 278 277 265 256 249 244 245 238 221 216 216 218 229 208 235 231 245 243 242 260 288 273 278 279 249 219 197 214 220 220 218 217 222 223 223 222 213 219 216 224 220 222 226 220 217
193 191 192 194 197 195 183 180 176 169 158 153 154 169 175 154 144 131 102 65 85 100 79 104 101 28 96 346 319 281 280 290 291 303 296 289 287 287 289 288 275 271 281 276 262 257 244 237 220 203 224 222 218 224 221 225 235 236 236 248 251 255 271 278 285 271 225 186 218 209 218 215 214 220 230 223 215 221 228 223 224 224 224 225 218
187 188 191 191 195 197 184 181 182 170 163 157 163 178 177 157 154 160 161 142 85 110 147 139 137 155 32 350 295 300 298 273 292 285 298 296 287 281 271 274 279 275 268 271 271 262 257 248 232 214 215 217 214 221 230 224 226 221 220 236 252 255 257 282 284 272 283 251 201 220 214 216 208 214 224 223 219 225 217 211 226 230 225 221 218
188 184 186 188 188 192 185 182 185 170 165 165 162 168 181 156 179 172 166 132 152 156 164 156 141 109 199 94 310 298 249 293 286 274 276 288 292 288 291 277 271 272 270 260 262 272 272 265 248 231 218 222 220 218 228 228 224 230 212 227 250 264 276 258 266 272 257 270 262 207 216 202 216 217 217 216 222 226 228 208 218 233 221 222 219
181 178 183 183 184 184 183 184 184 178 167 169 168 162 159 176 182 158 164 155 163 151 211 114 193 203 185 212 267 250 303 244 265 297 293 287 288 294 290 287 282 277 272 276 284 284 282 277 266 256 237 229 226 221 223 230 225 226 225 203 213 230 244 256 251 260 264 258 264 273 206 211 221 215 204 207 214 229 225 216 212 229 228 216 214
167 182 182 181 179 181 184 188 187 185 172 173 174 164 168 180 177 165 168 161 160 173 181 170 185 237 251 224 242 294 286 287 268 228 250 253 268 283 286 284 287 290 281 275 266 264 262 263 268 265 255 239 233 218 221 226 224 223 214 205 210 213 213 211 227 240 264 263 260 260 271 256 222 214 208 213 218 222 227 220 218 219 234 216 200